Regional Weather Roundup
Issued by NWS Wakefield, VA

Home | Current Version | Previous Version | Text Only | Print | Product List | Glossary On
Versions: 1 2 3 4 5 6 7 8 9 10 11 12 13 14 15 16 17 18 19 20 21 22 23 24 25 26 27 28 29 30 31 32 33 34 35 36 37 38 39 40 41 42 43 44 45 46 47 48 49 50
000
ASUS41 KAKQ 261010
RWRAKQ

REGIONAL WEATHER ROUNDUP
NATIONAL WEATHER SERVICE WAKEFIELD VA
600 AM EDT SAT JUL 26 2014

Note: "fair" indicates few or no clouds below 12,000 feet with no
significant weather and/or obstructions to visibility. * = Denotes
station may not report precipitation (e.g., rain,snow,etc.),
thunder or fog.

VAZ042-051-052>054-056-261100-
NORTHERN VIRGINIA

CITY           SKY/WX    TMP DP  RH WIND       PRES   REMARKS
WASH NATIONAL  CLOUDY    73  64  73 S7        30.00S
DULLES         CLOUDY    68  62  81 S6        30.00R
FORT BELVOIR   CLOUDY    66  64  95 SE2       30.00F
QUANTICO       CLOUDY    71  65  81 SW9       30.01S
FREDERICKSBRG* CLOUDY    69  65  88 CALM      30.00S
STAFFORD*      CLOUDY    66  66 100 CALM      30.05S
WARRENTON      CLOUDY    69  68  99 CALM      30.00S
CULPEPER*      CLOUDY   N/A N/A N/A CALM      30.01S
MANASSAS*      CLOUDY    68  66  94 CALM      30.00S
LEESBURG*      CLOUDY    68  64  88 CALM      30.01S
WINCHESTER     CLOUDY    68  63  83 CALM      30.01R
$$

VAZ048-049-060>072-079>083-261100-
CENTRAL AND SOUTH CENTRAL VIRGINIA...AND NORTH CENTRAL NORTH CAROLINA

CITY           SKY/WX    TMP DP  RH WIND       PRES   REMARKS
RICHMOND       CLOUDY    70  64  81 CALM      30.02R
CHESTERFIELD*  CLOUDY    68  57  68 CALM      30.04R
HANOVER        CLOUDY    68  65  90 CALM      30.03R
TAPPAHANNOCK*  CLOUDY    66  60  80 CALM      30.03R
CHARLOTTSVILLE PTCLDY    68  64  87 SW7       30.01S
ORANGE*        MOCLDY    64  63  94 CALM      30.02S
LOUISA*        MOCLDY    64  63  94 CALM      30.01S
FARMVILLE*     MOCLDY    66  64  94 CALM      30.00S
SOUTH HILL*    CLOUDY    72  72 100 CALM      30.08R FOG
ROANOKE RAPIDS PTSUNNY   64  63  94 CALM      30.02S
RALEIGH        FOG       72  70  93 CALM      30.02R VSB 1
$$

VAZ088>098-261100-
SOUTHEAST VIRGINIA

CITY           SKY/WX    TMP DP  RH WIND       PRES   REMARKS
NORFOLK        MOCLDY    69  61  75 S3        30.03R
VIRGINIA BEACH MOCLDY    66  62  87 CALM      30.02R
NORFOLK NAVAL  CLOUDY    73  62  68 S3        30.04S
WEST POINT*    MOCLDY    68  62  80 CALM      30.04R
NEWPORT NEWS   CLOUDY    72  63  73 S3        30.02S
LANGLEY AFB    CLOUDY    69  65  87 S3        30.02R
FORT EUSTIS    CLOUDY    73  63  72 S3        30.01R
WILLIAMSBURG*  CLOUDY    70  66  88 S3        30.04R
FRANKLIN*      CLOUDY    64  64 100 CALM      30.03R
WAKEFIELD      CLOUDY    66  63  90 CALM      30.03R
$$

VAZ020-022-025-037-045-261100-
WESTERN AND SOUTHWEST VIRGINIA

CITY           SKY/WX    TMP DP  RH WIND       PRES   REMARKS
STAUNTON*      MOCLDY    66  63  90 CALM      30.05R
HOT SPRINGS VA MOCLDY    60  59  95 W9        30.14S FOG
LYNCHBURG      MOCLDY    67  66  97 CALM      30.04R
DANVILLE       MOCLDY    68  65  90 CALM      30.02R
MARTINSVILLE   CLOUDY    69  69  98 CALM      30.05S FOG
ROANOKE        MOCLDY    71  66  84 CALM      30.04S
BLACKSBURG     CLEAR     64  64 100 CALM        N/A  FOG
DUBLIN*        CLEAR     64  64 100 CALM      30.09S FOG
MARION*        CLOUDY   N/A N/A N/A CALM      30.13S
HILLSVILLE*    PTCLDY    64  64  99 CALM      30.10S FOG
RICHLANDS*     CLOUDY    65  60  84 S3        30.11R
WISE*          CLEAR     61  59  94 CALM      30.12S
ABINGDON*      CLOUDY    63  62  96 CALM      30.09R
$$

MDZ021>025-VAZ099-100-261100-
SOUTHERN MARYLAND AND THE DELMARVA PENINSULA

CITY           SKY/WX    TMP DP  RH WIND       PRES   REMARKS
PATUXENT RIVER MOCLDY    70  62  76 SW6       30.02R
BAY BRIDGE APT   N/A     73  63  68 S8        30.00S
LEONARDTOWN    CLOUDY    68  61  77 CALM      30.04R
DOVER          CLOUDY    65  62  91 S3        30.00R
GEORGETOWN     CLOUDY    65  59  81 S8        30.03S
EASTON         CLOUDY    69  66  92 CALM      30.05S
CAMBRIDGE      MOCLDY    66  63  88 CALM      30.02R
SALISBURY      NOT AVBL
OCEAN CITY     MOCLDY    62  59  90 CALM      30.03S
WALLOPS ISLAND MOCLDY    67  62  84 W5        30.04R
ACCOMACK*        N/A     64  61  88 S5        30.03R
$$

NCZ012>017-030>032-261100-
EASTERN NORTH CAROLINA

CITY           SKY/WX    TMP DP  RH WIND       PRES   REMARKS
ELIZABETH CITY MOCLDY    68  64  87 CALM      30.03R
AHOSKIE*       CLOUDY    67  65  93 CALM      30.03R
EDENTON*       PTCLDY    66  65  95 CALM      30.02S
CURRITUCK*     PTCLDY    68  63  82 CALM      30.03F
KILL DEVIL HLS CLOUDY    73  65  76 CALM      30.02R
MANTEO         NOT AVBL
CAPE HATTERAS  MOCLDY    75  73  93 NE3       30.01R
GOLDSBORO      CLOUDY    73  72  94 E3        30.00S
WASHINGTON     PTCLDY    67  65  96 CALM      30.02S
GREENVILLE     CLOUDY    70  70 100 CALM      30.04R
NEW BERN       MOCLDY    74  71  91 CALM      30.03R
WILMINGTON     CLOUDY    74  73  97 NE3       29.99S
$$

VAZ048-261100-
ELSEWHERE

CITY           SKY/WX    TMP DP  RH WIND       PRES   REMARKS
HARRISBURG PA  CLOUDY    67  57  70 CALM      30.00R
BALTIMORE      CLOUDY    68  62  81 CALM      29.99S
ANNAPOLIS      CLOUDY    71  63  75 S6        30.00R
ANDREWS AFB    CLOUDY    68  64  87 S7        30.00S
WILMINGTON DE  CLOUDY    68  56  65 S5        30.01S
PHILADELPHIA   CLOUDY    69  61  75 S5        30.01S
WILDWOOD NJ*   CLOUDY    64  61  88 CALM      30.03S
ATLANTIC CITY  CLOUDY    65  61  87 CALM      30.02R
HENDERSON NC   CLOUDY    68  66  94 CALM      30.02S FOG
GREENSBORO     CLOUDY    71  69  93 CALM      30.03R
ROCKY MOUNT    CLOUDY    70  69  97 CALM      30.02S FOG
FAYETTEVILLE   CLOUDY    73  72  96 NE5       30.01R FOG
CHARLOTTE      PTCLDY    70  68  93 CALM      30.02R FOG
$$

VAZ100-261100-
MARINE

STATION/POSITION TIME  TEMP    WIND        PRES    WAVE   SWELL
                       AIR SEA DIR/SP/G            HT/PER HT/PER
                 (UTC) (F)     (DEG/KT/KT) (MB)    (FT/S) (FT/S)
44066 TX TWR #4  1000   72 74  260/  8/ 10 1016.4R   2/ 7   2/ 7
CAPE MAY NJ      1000   69 76  170/  3/  4 1016.1R
LEWES DE         1000   68 70  210/  5/  7 1016.3S
15NM E FENWICK I 1000   73 76              1016.8R   2/ 8
OCEAN-CITY-INLET 1000   69 72  270/  4/  5 1016.2F
WACHAPREAGUE VA  1000   67 80  230/  2/  2 1016.7S
THOMAS POINT MD  1000   73 79  190/ 16/ 18 1016.3S
GOOSES REEF MD   1000   73     220/ 12/ 16 1016.6S
COVE POINT MD    1000   72     230/ 11/ 12 1016.1R
SOLOMONS ISLAND  1000      81                N/A
BISHOPS HEAD MD  1000   75 78  200/  8/ 10 1016.0S
PINEY POINT MD   1000          220/  9/ 10   N/A
POTOMAC MD       1000   74     220/ 10/ 14 1015.5S
CAMBRIDGE MD     1000   70 80  200/  3/  4 1016.0F
LEWISETTA VA     1000   71 79  220/  8/  9 1016.1R
RAPPAHANNOCK LGT 1000          170/ 11/ 12 1017.0S
STINGRAY PT      1000   74     210/  8/ 10 1017.1S
YORK RVR RNG VA  1000   75     180/ 10/ 12 1015.9S
YORKTOWN VA      1000   71 80  210/  2/  4 1016.3R
JAMESTOWN VA     1000   71     190/  4/  8   N/A
DOMINION TERM VA 1000   73     180/  4/  5 1016.8R
KIPTOPEKE VA     1000      81  170/  5/  9   N/A
CHES BAY BRIDGE  1000   74 78  160/  3/  5 1016.3R
CAPE HENRY VA    1000   71     170/  4/  5 1015.7R
WILLOUBY STN VA  1000          170/  4/  5 1016.1R
S CRANEY ISL VA  1000          160/  4/  6 1016.9R
CAPE HENRY BUOY  1000      77                N/A     2/ 6
1ST LANDING BUOY 1000   74     170/  4/  6 1016.4S
CAPE CHARLES BUO 1000      76                N/A     2/ 7
OFFSHORE WE BUOY 1000      78                N/A     2/ 7
64NM E OF VA BCH 1000   76 78  150/  4/  4 1016.8R   2/ 7   2/ 7
DUCK PIER NC     1000   76 76  130/  5/  6 1016.2R
44056 DUCK FRF   0900                        N/A     2/ 6
OREGON INLET NC  1000   75 79   50/  3/  5 1016.5R
HATTERAS NC      1000   76 80   80/  3/  4 1016.5R
DIAMOND SHLS NC  1000          VRB  4/  6  1015.8R   2/ 6   2/ 6
CAPE LOOKOUT NC  0900   79     110/  5/  5 1015.4S
$$



USA.gov is the U.S. government's official web portal to all federal, state and local government web resources and services.